• In Kazakhstan
  • List of Countries
  • For 7 days
  • Water Temperature
  • Weather Map
  • News
  • Weather Widgets
  • user-avatar
    Login

    Hourly Weather Sokoly

    Today, 22 September, Sunday

    Time Temperature Precipitation Wind Pressure Humidity
    00:00 +11°C° 0 mm 4 mps 750 mmHg 89%
    01:00 +10°C° 0 mm 4 mps 750 mmHg 91%
    02:00 +10°C° 0 mm 3 mps 750 mmHg 93%
    03:00 +9°C° 0 mm 3 mps 750 mmHg 94%
    04:00 +9°C° 0 mm 3 mps 750 mmHg 95%
    05:00 +8°C° 0 mm 2 mps 749 mmHg 96%
    06:00 +9°C° 0 mm 3 mps 749 mmHg 94%
    07:00 +9°C° 0 mm 3 mps 749 mmHg 92%
    08:00 +10°C° 0 mm 3 mps 750 mmHg 88%
    09:00 +12°C° 0 mm 3 mps 749 mmHg 81%
    10:00 +14°C° 0 mm 3 mps 749 mmHg 73%
    11:00 +17°C° 0 mm 3 mps 749 mmHg 65%
    12:00 +18°C° 0 mm 3 mps 749 mmHg 62%
    13:00 +19°C° 0 mm 4 mps 748 mmHg 59%
    14:00 +20°C° 0 mm 4 mps 748 mmHg 56%
    15:00 +19°C° 0 mm 4 mps 747 mmHg 58%
    16:00 +19°C° 0 mm 3 mps 747 mmHg 61%
    17:00 +19°C° 0 mm 3 mps 747 mmHg 63%
    18:00 +17°C° 0 mm 3 mps 747 mmHg 69%
    19:00 +15°C° 0 mm 2 mps 747 mmHg 75%
    20:00 +14°C° 0 mm 2 mps 747 mmHg 81%
    21:00 +13°C° 0 mm 2 mps 748 mmHg 85%
    22:00 +12°C° 0 mm 2 mps 748 mmHg 89%
    23:00 +11°C° 0 mm 3 mps 748 mmHg 93%

    Tomorrow, 23 September, Monday

    Time Temperature Precipitation Wind Pressure Humidity
    00:00 +10°C° 0 mm 3 mps 749 mmHg 90%
    01:00 +10°C° 0 mm 4 mps 749 mmHg 88%
    02:00 +8°C° 0 mm 4 mps 749 mmHg 86%
    03:00 +8°C° 0 mm 4 mps 750 mmHg 82%
    04:00 +7°C° 0 mm 5 mps 750 mmHg 78%
    05:00 +7°C° 0 mm 5 mps 750 mmHg 75%
    06:00 +7°C° 0 mm 5 mps 750 mmHg 74%
    07:00 +7°C° 0 mm 5 mps 750 mmHg 74%
    08:00 +7°C° 0 mm 5 mps 751 mmHg 73%
    09:00 +8°C° 0 mm 5 mps 751 mmHg 68%
    10:00 +9°C° 0 mm 5 mps 751 mmHg 62%
    11:00 +10°C° 0 mm 5 mps 752 mmHg 57%
    12:00 +12°C° 0 mm 5 mps 751 mmHg 54%
    13:00 +12°C° 0 mm 5 mps 751 mmHg 50%
    14:00 +13°C° 0 mm 5 mps 751 mmHg 47%
    15:00 +12°C° 0 mm 4 mps 751 mmHg 48%
    16:00 +12°C° 0 mm 4 mps 751 mmHg 48%
    17:00 +12°C° 0 mm 4 mps 750 mmHg 49%
    18:00 +10°C° 0 mm 4 mps 751 mmHg 54%
    19:00 +9°C° 0 mm 3 mps 751 mmHg 58%
    20:00 +7°C° 0 mm 3 mps 751 mmHg 62%
    21:00 +5°C° 0 mm 3 mps 751 mmHg 64%
    22:00 +5°C° 0 mm 3 mps 751 mmHg 65%
    23:00 +4°C° 0 mm 3 mps 751 mmHg 67%

    Day after tomorrow, 24 September, Tuesday

    Time Temperature Precipitation Wind Pressure Humidity
    00:00 +4°C° 0 mm 3 mps 751 mmHg 67%
    01:00 +4°C° 0 mm 3 mps 751 mmHg 68%
    02:00 +3°C° 0 mm 3 mps 751 mmHg 69%
    03:00 +3°C° 0 mm 3 mps 751 mmHg 69%
    04:00 +3°C° 0 mm 3 mps 750 mmHg 70%
    05:00 +2°C° 0 mm 3 mps 750 mmHg 70%
    06:00 +3°C° 0 mm 3 mps 750 mmHg 67%
    07:00 +4°C° 0 mm 3 mps 750 mmHg 64%
    08:00 +5°C° 0 mm 3 mps 750 mmHg 61%
    09:00 +8°C° 0 mm 3 mps 750 mmHg 57%
    10:00 +10°C° 0 mm 3 mps 750 mmHg 54%
    11:00 +12°C° 0 mm 3 mps 750 mmHg 50%
    12:00 +13°C° 0 mm 3 mps 749 mmHg 49%
    13:00 +15°C° 0 mm 2 mps 749 mmHg 47%
    14:00 +16°C° 0 mm 2 mps 748 mmHg 46%
    15:00 +16°C° 0 mm 2 mps 748 mmHg 48%
    16:00 +16°C° 0 mm 2 mps 748 mmHg 51%
    17:00 +15°C° 0 mm 2 mps 747 mmHg 53%
    18:00 +14°C° 0 mm 2 mps 747 mmHg 58%
    19:00 +12°C° 0 mm 2 mps 747 mmHg 63%
    20:00 +9°C° 0 mm 3 mps 747 mmHg 68%
    21:00 +8°C° 0 mm 3 mps 747 mmHg 71%
    22:00 +8°C° 0 mm 3 mps 747 mmHg 74%
    23:00 +7°C° 0 mm 3 mps 747 mmHg 77%

    25 September, Wednesday

    Time Temperature Precipitation Wind Pressure Humidity
    00:00 +7°C° 0 mm 3 mps 747 mmHg 77%
    01:00 +7°C° 0 mm 3 mps 747 mmHg 77%
    02:00 +5°C° 0 mm 3 mps 746 mmHg 76%
    03:00 +5°C° 0 mm 3 mps 746 mmHg 76%
    04:00 +5°C° 0 mm 3 mps 746 mmHg 75%
    05:00 +5°C° 0 mm 3 mps 746 mmHg 75%
    06:00 +7°C° 0 mm 3 mps 746 mmHg 72%
    07:00 +7°C° 0 mm 4 mps 745 mmHg 69%
    08:00 +7°C° 0 mm 4 mps 745 mmHg 66%
    09:00 +10°C° 0 mm 4 mps 745 mmHg 62%
    10:00 +11°C° 0 mm 4 mps 745 mmHg 59%
    11:00 +13°C° 0 mm 4 mps 745 mmHg 56%
    12:00 +13°C° 0 mm 4 mps 745 mmHg 56%
    13:00 +14°C° 0 mm 4 mps 744 mmHg 56%
    14:00 +15°C° 0 mm 5 mps 744 mmHg 56%
    15:00 +15°C° 0 mm 4 mps 744 mmHg 58%
    16:00 +14°C° 0 mm 4 mps 743 mmHg 61%
    17:00 +14°C° 0 mm 3 mps 743 mmHg 64%
    18:00 +14°C° 0 mm 3 mps 743 mmHg 67%
    19:00 +13°C° 0 mm 3 mps 743 mmHg 70%
    20:00 +12°C° 0 mm 3 mps 743 mmHg 73%
    21:00 +12°C° 0 mm 3 mps 743 mmHg 79%
    22:00 +12°C° 0 mm 3 mps 743 mmHg 84%
    23:00 +11°C° 0 mm 3 mps 743 mmHg 90%

    26 September, Thursday

    Time Temperature Precipitation Wind Pressure Humidity
    00:00 +11°C° 0.2 mm 3 mps 742 mmHg 92%
    01:00 +11°C° 0.2 mm 3 mps 742 mmHg 94%
    02:00 +12°C° 0.2 mm 2 mps 742 mmHg 97%
    03:00 +12°C° 0.1 mm 2 mps 742 mmHg 97%
    04:00 +12°C° 0.1 mm 2 mps 742 mmHg 97%
    05:00 +12°C° 0.1 mm 1 mps 742 mmHg 97%
    06:00 +12°C° 0 mm 2 mps 742 mmHg 96%
    07:00 +12°C° 0 mm 2 mps 742 mmHg 94%
    08:00 +13°C° 0 mm 2 mps 742 mmHg 93%
    09:00 +14°C° 0 mm 2 mps 743 mmHg 89%
    10:00 +15°C° 0 mm 2 mps 743 mmHg 84%
    11:00 +16°C° 0 mm 2 mps 744 mmHg 79%
    12:00 +16°C° 0.1 mm 3 mps 744 mmHg 77%
    13:00 +16°C° 0.1 mm 3 mps 744 mmHg 74%
    14:00 +17°C° 0.1 mm 3 mps 744 mmHg 72%
    15:00 +15°C° 0 mm 4 mps 744 mmHg 73%
    16:00 +15°C° 0 mm 4 mps 744 mmHg 74%
    17:00 +14°C° 0 mm 4 mps 744 mmHg 75%
    18:00 +13°C° 0 mm 3 mps 745 mmHg 78%
    19:00 +12°C° 0 mm 3 mps 745 mmHg 82%
    20:00 +10°C° 0 mm 3 mps 746 mmHg 85%
    21:00 +9°C° 0 mm 3 mps 746 mmHg 88%
    22:00 +8°C° 0 mm 3 mps 746 mmHg 91%
    23:00 +7°C° 0 mm 2 mps 747 mmHg 94%

    27 September, Friday

    Time Temperature Precipitation Wind Pressure Humidity
    00:00 +7°C° 0 mm 2 mps 747 mmHg 93%
    01:00 +7°C° 0 mm 2 mps 747 mmHg 93%
    02:00 +7°C° 0 mm 2 mps 747 mmHg 93%
    03:00 +6°C° 0 mm 2 mps 748 mmHg 94%
    04:00 +6°C° 0 mm 2 mps 748 mmHg 95%
    05:00 +5°C° 0 mm 2 mps 748 mmHg 96%
    06:00 +6°C° 0 mm 2 mps 748 mmHg 94%
    07:00 +7°C° 0 mm 2 mps 748 mmHg 91%
    08:00 +7°C° 0 mm 2 mps 748 mmHg 89%
    09:00 +10°C° 0 mm 1 mps 749 mmHg 83%
    10:00 +11°C° 0 mm 1 mps 749 mmHg 77%
    11:00 +12°C° 0 mm 1 mps 749 mmHg 71%
    12:00 +14°C° 0 mm 1 mps 749 mmHg 66%
    13:00 +15°C° 0 mm 1 mps 749 mmHg 61%
    14:00 +16°C° 0 mm 1 mps 749 mmHg 56%
    15:00 +16°C° 0 mm 1 mps 749 mmHg 58%
    16:00 +16°C° 0 mm 1 mps 749 mmHg 59%
    17:00 +15°C° 0 mm 0 mps 749 mmHg 60%
    18:00 +14°C° 0 mm 1 mps 749 mmHg 65%
    19:00 +13°C° 0 mm 1 mps 749 mmHg 70%
    20:00 +11°C° 0 mm 1 mps 749 mmHg 75%
    21:00 +10°C° 0 mm 2 mps 749 mmHg 77%
    22:00 +9°C° 0 mm 2 mps 749 mmHg 79%
    23:00 +9°C° 0 mm 3 mps 750 mmHg 80%
    Show more